User: anonymous   Login
Location: Berbisdorf
(50.7638°N, 12.9442°E)
Time: 16:18:59
(UTC+00:00)
Language:

CZ-4C R/B - Orbit

View from above orbital plane
View from above orbital plane
View from above satellite
View from above satellite

Ground track
Ground track

The orbit data is extracted from the following two-line orbital elements,

1 39211U 13037D   20224.88758851 +.00000041 +00000-0 +71374-5 0  9992
2 39211 097.9802 356.3047 0124401 018.7827 341.7928 15.05495569387489
Epoch (UTC): 11 August 2020 21:18:07
Eccentricity: 0.0124401
inclination: 97.9802°
perigee height: 464 km
apogee height: 636 km
right ascension of ascending node: 356.3047°
argument of perigee: 18.7827°
revolutions per day: 15.05495569
mean anomaly at epoch: 341.7928°
orbit number at epoch: 38748

The dashed part of the orbit path shows where the satellite is in the earth's shadow,  

DLR